Tracking 20232 objects as of 18-Jan-2020
HD Live streaming from Space Station
objects crossing your sky now

COSMOS 1275 DEB

Track COSMOS 1275 DEB now!
10-day predictions


NORAD ID: 14406
Int'l Code: 1981-053JE
Perigee: 850.7 km
Apogee: 893.1 km
Inclination: 82.8 °
Period: 102.2 minutes
Semi major axis: 7242 km
RCS: 0.0178 m2 (small)
Launch date: June 4, 1981
Source: Commonwealth of Independent States (former USSR) (CIS)
Launch site: PLESETSK MISSILE AND SPACE COMPLEX (PKMTR)

Note: This is SATELLITE DEBRIS
aabbcc
Your satellite tracking list
Your tracking list is empty




NASA's NSSDC Master Catalog

Two Line Element Set (TLE):
1 14406U 81053JB  20017.57726098 +.00000574 +00000-0 +32480-3 0  9992
2 14406 082.8424 100.6578 0029306 296.3821 177.1854 14.08429028891002
Source of the keplerian elements: AFSPC